Find Starlink 11636

NORAD ID: 63194 Int'l Des: 2025-048 Owner: SPXS Country: US Constellation: starlink operational
別名: STARLINK-11636 [DTC] celestrak
LEOCIRCULAR

現在のビュー

3D地球を読み込み中...

About Starlink 11636

Starlink 11636 (NORAD 63194) is a starlink constellation satellite (v2 mini d2c) launched Mar 13, 2025 by SPXS of US. It operates in LEO, CIRCULAR orbit with a mass of 960.00 kg.

次回通過

Passes for default location (London). Set your location on the main map for personalized predictions.

高度履歴

Loading altitude history...

軌道要素

1 63194U 25048M 26235.49569776 .00247698 00000-0 18762-2 0 9995
2 63194 43.0019 34.6026 0004354 281.3618 78.6760 15.70843475 84750
Epoch: Aug 23, 2026 • Age: 13 hours

現在のステータス

高度 363.6 km
遠地点 / 近地点 N/A
速度 7.69 km/s
衛星直下点 -34.63°S, 90.18°W
打ち上げ日 Mar 13, 2025
運用期間 1.4 years
タイプ internet

技術仕様

分類 Payload
質量 960.00 kg
乾燥質量 910.00 kg
総質量 960.00 kg
長さ 0.30 m
直径 4.10 m
スパン 29.00 m
形状 Box + pan
製造者 SPXS
バスタイプ Starlink V2MD
フェーズステータス In Orbit
所有者/国 SPXS/US

Most Searched